Waarnemingen

Advertentie
Mijn weer
Hohn, Duitsland (10038): temperatuur & dauwpunt: 11.01.2019 01:00:00 - 17.01.2019 01:00:00 (CET)Hohn, Duitsland (10038): windsnelheid & windstoten: 11.01.2019 01:00:00 - 17.01.2019 01:00:00 (CET)Hohn, Duitsland (10038): windrichting: 11.01.2019 01:00:00 - 17.01.2019 01:00:00 (CET)Hohn, Duitsland (10038): luchtdruk: 11.01.2019 01:00:00 - 17.01.2019 01:00:00 (CET)Hohn, Duitsland (10038): zicht: 11.01.2019 01:00:00 - 17.01.2019 01:00:00 (CET)
Datum & Tijd tt [°C] td [°C] ff [km/u] ff [kn] fx [km/u] fx [kn] dd ppp [hPa] vv [km]
17.01.2019 01:00:00 4,4 2,9 25 14 - - WZW 994,4 4,7
17.01.2019 00:00:00 5,2 3,4 25 14 54 29 ZW 994,4 5
16.01.2019 23:00:00 4,9 3,6 25 14 47 25 ZW 994,9 5
16.01.2019 22:00:00 5,0 3,7 25 14 - - ZW 995,7 4,5
16.01.2019 21:00:00 5,3 4,1 29 16 58 31 ZW 996,4 6
16.01.2019 20:00:00 5,5 4,3 28 15 50 27 ZW 997,1 5
16.01.2019 19:00:00 5,8 4,3 29 16 - - ZW 997,6 5
16.01.2019 18:00:00 6,1 4,7 25 14 54 29 ZW 998,5 6
16.01.2019 17:00:00 6,4 5,0 29 16 58 31 ZW 999,2 4,0
16.01.2019 16:00:00 6,7 5,3 29 16 - - ZW 999,6 4,5
16.01.2019 15:00:00 6,7 5,6 31 17 54 29 WZW 1000,1 4,0
16.01.2019 14:00:00 7,2 6,1 25 14 54 29 ZW 1000,5 2,6
16.01.2019 13:00:00 7,1 6,0 28 15 - - WZW 1001,3 5
16.01.2019 12:00:00 7,3 5,1 25 14 54 29 WZW 1002,1 10
16.01.2019 11:00:00 7,4 5,2 29 16 54 29 WZW 1002,9 15
16.01.2019 10:00:00 7,1 5,3 25 14 - - WZW 1003,3 11
16.01.2019 09:00:00 7,0 5,3 25 14 47 25 WZW 1003,6 7
16.01.2019 08:00:00 6,9 5,3 25 14 - - WZW 1003,9 9
16.01.2019 07:00:00 6,9 5,4 22 12 - - WZW 1004,2 8
16.01.2019 06:00:00 6,9 5,2 22 12 - - WZW 1004,6 7
16.01.2019 05:00:00 6,8 5,0 25 14 47 25 WZW 1005,1 7
16.01.2019 04:00:00 6,8 5,0 29 16 - - WZW 1005,6 5
16.01.2019 03:00:00 6,7 4,8 25 14 47 25 WZW 1005,9 5
16.01.2019 02:00:00 6,8 5,0 29 16 50 27 WZW 1006,1 5
16.01.2019 01:00:00 7,0 5,3 25 14 - - WZW 1006,3 4,7
16.01.2019 00:00:00 7,4 5,7 32 18 54 29 W 1006,3 4,6
15.01.2019 23:00:00 7,3 6,1 39 21 54 29 W 1006,3 8
15.01.2019 22:00:00 7,3 6,6 37 20 - - W 1006,1 8
15.01.2019 21:00:00 7,2 6,5 25 14 - - W 1006,0 2,3
15.01.2019 20:00:00 7,3 6,2 29 16 - - W 1006,3 5
15.01.2019 19:00:00 7,4 6,2 32 18 - - W 1006,1 8
15.01.2019 18:00:00 7,3 6,1 36 19 50 27 W 1005,9 8
15.01.2019 17:00:00 7,2 6,3 36 19 58 31 W 1005,9 6
15.01.2019 16:00:00 7,1 6,1 42 23 - - W 1005,3 2,5
15.01.2019 15:00:00 6,9 6,0 40 21 58 31 W 1005,5 2,0
15.01.2019 14:00:00 6,9 5,9 36 19 54 29 W 1006,0 2,8
15.01.2019 13:00:00 6,7 5,6 32 18 - - W 1006,4 5
15.01.2019 12:00:00 6,4 5,2 29 16 47 25 WZW 1007,4 4,5
15.01.2019 11:00:00 6,4 4,9 29 16 - - WZW 1008,2 10
15.01.2019 10:00:00 6,1 4,3 29 16 - - W 1008,7 10
15.01.2019 09:00:00 5,3 3,9 22 12 - - W 1008,9 10
15.01.2019 08:00:00 5,4 3,5 25 14 - - W 1008,9 12
15.01.2019 07:00:00 5,2 3,5 29 16 - - W 1008,9 10
15.01.2019 06:00:00 5,0 2,7 34 18 54 29 W 1009,3 6
15.01.2019 05:00:00 5,0 1,0 36 19 54 29 W 1009,8 15
15.01.2019 04:00:00 4,8 1,1 36 19 - - W 1010,4 8
15.01.2019 03:00:00 4,1 0,8 29 16 - - W 1010,9 8
15.01.2019 02:00:00 3,0 0,2 14 8 - - W 1011,6 8
15.01.2019 01:00:00 3,4 -0,5 18 10 - - WNW 1011,8 9
15.01.2019 00:00:00 3,4 -1,1 22 12 - - W 1011,8 8
14.01.2019 23:00:00 2,8 -1,7 25 14 - - WNW 1011,5 25
14.01.2019 22:00:00 2,6 -2,4 32 18 - - WNW 1010,9 25
14.01.2019 21:00:00 2,0 -2,3 22 12 - - WNW 1010,5 20
14.01.2019 20:00:00 2,1 -2,9 22 12 - - WNW 1009,9 20
14.01.2019 19:00:00 1,7 -2,0 25 14 - - WNW 1009,3 20
14.01.2019 18:00:00 1,1 -3,2 22 12 - - WNW 1008,7 20
14.01.2019 17:00:00 1,8 -3,1 25 14 - - WNW 1008,2 15
14.01.2019 16:00:00 2,4 -3,5 25 14 - - WNW 1007,3 15
14.01.2019 15:00:00 1,9 -2,8 25 14 61 33 NW 1006,6 15
14.01.2019 14:00:00 2,2 -3,4 32 18 50 27 WNW 1006,0 15
14.01.2019 13:00:00 1,3 -2,5 37 20 - - NW 1005,9 4,0
14.01.2019 12:00:00 0,5 -1,6 29 16 58 31 WNW 1004,9 7
14.01.2019 11:00:00 0,1 -1,0 37 20 58 31 NW 1004,3 0,7
14.01.2019 10:00:00 0,8 -1,9 39 21 - - NW 1003,9 10
14.01.2019 09:00:00 1,1 -3,2 29 16 54 29 NW 1002,9 10
14.01.2019 08:00:00 1,0 -2,5 29 16 54 29 WNW 1002,1 10
14.01.2019 07:00:00 2,0 -3,3 25 14 - - NW 1001,1 10
14.01.2019 06:00:00 2,7 -3,3 32 18 58 31 NW 1000,1 12
14.01.2019 05:00:00 1,9 -2,8 29 16 65 35 WNW 999,5 12
14.01.2019 04:00:00 2,8 -1,0 39 21 - - NW 998,8 8
14.01.2019 03:00:00 3,7 -3,0 36 19 58 31 WNW 997,3 10
14.01.2019 02:00:00 3,5 -2,5 32 18 61 33 NW 996,6 9
14.01.2019 01:00:00 3,8 -2,2 36 19 - - NW 995,0 9
14.01.2019 00:00:00 3,8 -1,1 36 19 68 37 NW 993,6 9
13.01.2019 23:00:00 4,6 -0,5 40 21 72 39 NW 992,1 9
13.01.2019 22:00:00 5,3 -0,1 40 21 - - NW 990,7 9
13.01.2019 21:00:00 6,0 1,9 40 21 68 37 WNW 989,4 8
13.01.2019 20:00:00 6,9 4,0 43 23 72 39 WNW 988,0 8
13.01.2019 19:00:00 7,1 4,1 43 23 - - WNW 988,2 12
13.01.2019 18:00:00 6,8 4,4 40 21 61 33 W 988,1 12
13.01.2019 17:00:00 6,9 4,5 40 21 61 33 W 988,2 10
13.01.2019 16:00:00 7,7 5,1 36 19 - - WNW 988,7 12
13.01.2019 15:00:00 8,4 6,5 46 25 61 33 W 989,7 10
13.01.2019 14:00:00 8,5 6,8 40 21 61 33 W 991,0 10
13.01.2019 13:00:00 8,1 6,9 36 19 - - W 992,3 8
13.01.2019 12:00:00 8,1 7,2 39 21 58 31 W 993,2 3,5
13.01.2019 11:00:00 8,0 7,1 40 21 54 29 W 994,4 2,8
13.01.2019 10:00:00 7,4 6,7 28 15 - - W 995,1 2,8
13.01.2019 09:00:00 6,7 6,0 18 10 - - WZW 996,6 5
13.01.2019 08:00:00 6,6 5,7 22 12 - - WZW 997,7 5
13.01.2019 07:00:00 6,5 5,4 22 12 - - WZW 999,2 6
13.01.2019 06:00:00 6,6 5,1 36 19 47 25 W 1000,5 7
13.01.2019 05:00:00 6,4 5,1 29 16 - - W 1001,2 7
13.01.2019 04:00:00 6,0 4,5 25 14 - - W 1001,9 7
13.01.2019 03:00:00 6,1 4,9 29 16 - - W 1002,3 7
13.01.2019 02:00:00 6,0 4,5 22 12 - - W 1002,4 7
13.01.2019 01:00:00 5,9 4,5 25 14 - - WNW 1002,8 5
13.01.2019 00:00:00 5,7 4,7 29 16 - - W 1002,5 7
12.01.2019 23:00:00 5,1 3,5 25 14 - - W 1002,9 7
12.01.2019 22:00:00 5,0 3,2 29 16 - - W 1002,9 6
12.01.2019 21:00:00 5,7 3,5 32 18 54 29 WNW 1002,8 6
12.01.2019 20:00:00 6,0 4,7 22 12 54 29 NW 1003,0 8
12.01.2019 19:00:00 6,7 4,7 36 19 - - W 1003,1 8
12.01.2019 18:00:00 6,6 4,6 36 19 50 27 W 1003,4 9
12.01.2019 17:00:00 6,4 4,7 36 19 50 27 W 1003,7 10
12.01.2019 16:00:00 6,4 4,3 32 18 - - W 1004,3 10
12.01.2019 15:00:00 7,0 5,6 32 18 47 25 W 1004,6 10
12.01.2019 14:00:00 6,7 5,5 29 16 54 29 WNW 1005,1 4,5
12.01.2019 13:00:00 6,6 5,6 32 18 - - WZW 1005,9 3,8
12.01.2019 12:00:00 5,9 5,0 25 14 - - WZW 1007,5 3,0
12.01.2019 11:00:00 5,7 4,7 22 12 - - WZW 1009,2 3,8
12.01.2019 10:00:00 5,7 3,5 18 10 - - WZW 1010,7 4,5
12.01.2019 09:00:00 5,7 3,7 21 11 - - WZW 1011,7 8
12.01.2019 08:00:00 5,7 4,5 29 16 - - W 1012,3 7
12.01.2019 07:00:00 5,8 4,5 25 14 - - W 1012,9 6
12.01.2019 06:00:00 5,7 4,6 22 12 - - W 1013,6 6
12.01.2019 05:00:00 5,8 4,1 22 12 - - W 1014,2 9
12.01.2019 04:00:00 5,6 3,5 22 12 - - W 1014,7 9
12.01.2019 03:00:00 5,7 2,8 22 12 - - W 1015,4 15
12.01.2019 02:00:00 5,5 2,1 18 10 - - WNW 1015,6 10
12.01.2019 01:00:00 5,3 2,6 18 10 - - W 1015,9 12
12.01.2019 00:00:00 4,9 2,5 18 10 - - W 1016,1 12
11.01.2019 23:00:00 5,0 2,2 22 12 - - WNW 1016,3 12
11.01.2019 22:00:00 4,0 1,8 18 10 - - WNW 1016,3 12
11.01.2019 21:00:00 4,0 1,9 18 10 - - WNW 1016,0 12
11.01.2019 20:00:00 4,5 1,9 18 10 - - WNW 1015,9 9
11.01.2019 19:00:00 5,3 2,6 22 12 - - WNW 1015,6 7
11.01.2019 18:00:00 6,0 3,0 25 14 - - NW 1015,3 7
11.01.2019 17:00:00 6,3 3,3 25 14 47 25 NW 1015,0 9
11.01.2019 16:00:00 6,7 3,7 32 18 - - WNW 1014,4 7
11.01.2019 15:00:00 7,0 4,0 32 18 54 29 WNW 1014,0 8
11.01.2019 14:00:00 7,3 4,6 32 18 50 27 WNW 1014,2 12
11.01.2019 13:00:00 7,5 5,5 36 19 - - WNW 1014,9 12
11.01.2019 12:00:00 7,1 5,9 26 14 - - WNW 1015,5 9
11.01.2019 11:00:00 6,8 5,8 22 12 - - WNW 1016,1 5
11.01.2019 10:00:00 6,6 5,7 24 13 - - WNW 1016,3 4,0
11.01.2019 09:00:00 6,7 5,7 25 14 - - WNW 1016,4 5
11.01.2019 08:00:00 6,6 5,7 22 12 - - WNW 1016,6 7
11.01.2019 07:00:00 6,3 5,6 24 13 - - WNW 1016,8 6
11.01.2019 06:00:00 5,8 5,2 18 10 - - W 1017,6 5
11.01.2019 05:00:00 5,9 5,5 18 10 - - W 1018,4 8
11.01.2019 04:00:00 5,2 4,8 18 10 - - W 1019,0 0,4
11.01.2019 03:00:00 4,6 4,0 13 7 - - WZW 1019,2 0,6
11.01.2019 02:00:00 4,2 3,6 14 8 - - WZW 1019,6 2,4
11.01.2019 01:00:00 3,0 2,5 14 8 - - ZW 1020,5 2,2

tt = temperatuur
td = dauwpunt
ff = windsnelheid
fx = windstoten
dd = windrichting
ppp = luchtdruk
vv = zicht

Weerstations in de omgeving